Appleton, WI

6:15 AM CST on February 21, 2018 (GMT -0600)
Outagamie County Regional

Weather History for KATW - February, 2013

Change the Weather History Date:

Friday, February 1, 2013

  Actual Average Record
Temperature  
Mean Temperature -1 °F -  
Max Temperature 3 °F 26 °F 43 °F (1987)
Min Temperature -5 °F 9 °F -20 °F (1985)
Degree Days  
Heating Degree Days 66    
Moisture  
Dew Point -6 °F    
Average Humidity 74    
Maximum Humidity 85    
Minimum Humidity 56    
Precipitation  
Precipitation 0.00 in - - ()
Sea Level Pressure  
Sea Level Pressure 30.13 in    
Wind  
Wind Speed 14 mph (WSW)    
Max Wind Speed 18 mph    
Max Gust Speed -    
Visibility 8 miles    
Events Snow    
Averages and records for this station are not official NWS values.
T = Trace of Precipitation, MM = Missing Value Source: NWS Daily Summary

Daily Weather History Graph

Daily Weather History Graph

Search for Another Location

Airport or City:

Trip Planner

Search our weather history database for the weather conditions in past years. The results will help you decide how hot, cold, wet, or windy it might be!

Date:

Astronomy

Feb. 01, 2013 Rise Set
Actual Time 7:11 AM CST 5:04 PM CST
Civil Twilight 6:40 AM CST 5:35 PM CST
Nautical Twilight 6:06 AM CST 6:09 PM CST
Astronomical Twilight 5:32 AM CST 6:43 PM CST
Moon 11:27 PM CST (2/1) 9:29 AM CST (2/1)
Length of Visible Light 10h 54m
Length of Day
9h 52m
Waning Gibbous, 70% of the Moon is Illuminated
Feb 1
Waning Gibbous
Feb 3
Last Quarter
Feb 10
New
Feb 17
First Quarter
Feb 25
Full

Hourly Weather History & Observations

Time (CST) Temp. Windchill Dew Point Humidity Pressure Visibility Wind Dir Wind Speed Gust Speed Precip Events Conditions
12:15 AM 1.4 °F -16.9 °F -4.0 °F 78% 30.05 in 10.0 mi West 13.8 mph - N/A   Clear
12:55 AM -0.4 °F -19.2 °F -5.8 °F 78% 30.06 in 10.0 mi West 13.8 mph - N/A   Clear
1:15 AM -0.4 °F -19.9 °F -5.8 °F 78% 30.07 in 10.0 mi West 15.0 mph - N/A   Clear
1:35 AM -0.4 °F -20.5 °F -5.8 °F 78% 30.07 in 10.0 mi West 16.1 mph - N/A   Clear
1:55 AM -0.4 °F -19.9 °F -5.8 °F 78% 30.08 in 10.0 mi West 15.0 mph - N/A   Clear
2:15 AM -0.4 °F -20.5 °F -5.8 °F 78% 30.09 in 10.0 mi West 16.1 mph - N/A   Clear
2:35 AM -0.4 °F -20.5 °F -5.8 °F 78% 30.10 in 10.0 mi West 16.1 mph - N/A   Clear
2:55 AM -0.4 °F -19.9 °F -5.8 °F 78% 30.10 in 10.0 mi West 15.0 mph - N/A   Clear
3:15 AM -0.4 °F -19.2 °F -7.6 °F 72% 30.11 in 10.0 mi West 13.8 mph - N/A   Clear
3:35 AM -0.4 °F -21.2 °F -7.6 °F 72% 30.12 in 10.0 mi West 17.3 mph - N/A   Clear
3:55 AM -2.2 °F -23.5 °F -7.6 °F 78% 30.13 in 10.0 mi West 17.3 mph - N/A   Clear
4:15 AM -2.2 °F -24.1 °F -7.6 °F 78% 30.13 in 10.0 mi West 18.4 mph - N/A   Clear
5:20 AM -2.2 °F -23.5 °F -9.4 °F 71% 30.15 in 10.0 mi West 17.3 mph - N/A   Clear
8:45 AM -5.8 °F -28.2 °F -13.0 °F 71% 30.21 in 10.0 mi West 17.3 mph - N/A   Clear
9:45 AM -5.8 °F -28.8 °F -13.0 °F 71% 30.21 in 10.0 mi West 18.4 mph - N/A   Clear
10:45 AM -4.0 °F -25.8 °F -11.2 °F 71% 30.22 in 10.0 mi West 17.3 mph - N/A   Clear
11:45 AM -2.2 °F -22.2 °F -11.2 °F 66% 30.21 in 10.0 mi West 15.0 mph - N/A   Clear
12:55 PM -0.4 °F -19.9 °F -11.2 °F 60% 30.18 in 10.0 mi WSW 15.0 mph - N/A   Partly Cloudy
1:45 PM 1.4 °F -14.5 °F -11.2 °F 56% 30.17 in 10.0 mi WSW 10.4 mph - N/A   Partly Cloudy
2:45 PM 1.4 °F -15.3 °F -11.2 °F 56% 30.17 in 10.0 mi WSW 11.5 mph - N/A   Scattered Clouds
3:45 PM 1.4 °F -16.1 °F -9.4 °F 61% 30.16 in 10.0 mi SW 12.7 mph - N/A   Scattered Clouds
4:45 PM 1.4 °F -12.5 °F -7.6 °F 66% 30.15 in 10.0 mi SW 8.1 mph - N/A   Scattered Clouds
5:45 PM 1.4 °F -13.5 °F -7.6 °F 66% 30.14 in 10.0 mi SW 9.2 mph - N/A   Mostly Cloudy
6:45 PM 1.4 °F -13.5 °F -7.6 °F 66% 30.14 in 10.0 mi SW 9.2 mph - N/A   Mostly Cloudy
7:45 PM 1.4 °F -15.3 °F -5.8 °F 72% 30.13 in 10.0 mi SW 11.5 mph - N/A   Mostly Cloudy
8:45 PM 3.2 °F -13.1 °F -5.8 °F 66% 30.13 in 10.0 mi WSW 11.5 mph - N/A   Overcast
9:45 PM 1.4 °F -14.5 °F -2.2 °F 85% 30.12 in 4.0 mi WSW 10.4 mph - N/A Snow Light Snow
9:55 PM 3.2 °F -12.2 °F -2.2 °F 78% 30.12 in 4.0 mi WSW 10.4 mph - N/A Snow Light Snow
10:15 PM 3.2 °F -12.2 °F -0.4 °F 85% 30.12 in 3.0 mi WSW 10.4 mph - N/A Snow Light Snow
10:35 PM 3.2 °F -11.3 °F -0.4 °F 85% 30.11 in 2.5 mi WSW 9.2 mph - N/A Snow Light Snow
10:45 PM 1.4 °F -14.5 °F -2.2 °F 85% 30.11 in 3.0 mi WSW 10.4 mph - N/A Snow Light Snow
10:55 PM 3.2 °F -11.3 °F -0.4 °F 85% 30.11 in 5.0 mi WSW 9.2 mph - N/A Snow Light Snow
11:15 PM 3.2 °F -10.3 °F -0.4 °F 85% 30.10 in 5.0 mi WSW 8.1 mph - N/A Snow Light Snow
11:35 PM 3.2 °F -10.3 °F -0.4 °F 85% 30.09 in 7.0 mi WSW 8.1 mph - N/A Snow Light Snow
11:55 PM 3.2 °F -10.3 °F -0.4 °F 85% 30.09 in 4.0 mi WSW 8.1 mph - N/A Snow Light Snow